sat.trackr.live / text

‹ back to catalog

STARLINK-4519

NORAD 53439 · 2022-097BD

PAYLOAD ACTIVE UNKNOWN

§ Identity

Operator
Country
US
Launch date
2022-08-10
Launch site
AFETR
Launch vehicle
Mass (kg)
RCS (m²)

Purposes: comms

External: N2YO · Heavens-Above · Gunter

§ Orbital elements

Epoch: 2026-09-19T15:32:53.163456Z

Period
93.85 min
Inclination
53.1603°
Eccentricity
0.0001172
Mean motion
15.34394429 rev/d
Perigee alt
461.9 km
Apogee alt
463.5 km
Semi-major
6,840.9 km
B*
-2.5240e-7
RAAN
297.4033°
Arg perigee
71.2873°
Mean anomaly
288.8257°
Rev number
22,829

§ Raw data

STARLINK-45191 53439U 22097BD  26262.64783754 -.00000385  00000+0 -25240-6 0  99922 53439  53.1603 297.4033 0001172  71.2873 288.8257 15.34394429228298

JSON: /api/v1/satellites/53439 · /tle

For live sub-satellite position, see the globe view (requires WebGL).

§ Visibility from observer

Set your observer location to see the next 7 days of passes ≥ 10°. The values pass through the URL so the page stays shareable.

No JS? Fill the form by hand. The geolocation button needs JavaScript.